Miscellaneous Local Product
Issued by NWS North Platte, NE

Home | Current Version | Previous Version | Graphics & Text | Print | Product List | Glossary On
Versions: 1 2 3 4 5 6 7 8 9 10 11 12 13 14 15 16 17 18 19 20 21 22 23 24 25 26 27 28 29 30 31 32 33 34 35 36 37 38 39 40 41 42 43 44 45 46 47 48 49 50
516
AXUS43 KLBF 191810
MISLBF


WESTERN AND NORTH CENTRAL NEBRASKA HOURLY WEATHER ROUNDUP
NATIONAL WEATHER SERVICE NORTH PLATTE NE
100 PM CDT WED JUL 19 2017

NOTE: "FAIR" INDICATES FEW OR NO CLOUDS BELOW 12,000 FEET WITH NO
SIGNIFICANT WEATHER AND/OR OBSTRUCTIONS TO VISIBILITY.

NOTE: STATIONS NOT REPORTING VARIABLES SUCH AS SKY/WEATHER OR
PRESSURE ARE PROVIDED BY RAWS AND APRS NETWORKS AND ARE NOT UNDER
NATIONAL WEATHER SERVICE QUALITY CONTROL.

...OBSERVATIONS IN AND NEAR THE EASTERN PANHANDLE OF NEBRASKA...

CITY           SKY/WX    TMP DP  RH WIND       PRES   REMARKS
PINE RIDGE     SUNNY     96  67  38 S14G20    29.97S HX 100
GORDON         FAIR      90  67  45 SW14      29.99S HX  93
CHADRON        SUNNY    100  54  21 SW13      29.95F HX  98
ALLIANCE       SUNNY     95  64  35 S12G20    30.03F HX  97
SIDNEY         SUNNY     94  64  37 S9G17     30.09F HX  95
CRESCENT LAKE    N/A     91  70  49 S7          N/A  HX  96
$$

...OBSERVATIONS IN NORTHERN NEBRASKA AND FAR SOUTHERN SOUTH DAKOTA...

CITY           SKY/WX    TMP DP  RH WIND       PRES   REMARKS
WINNER         FAIR      97  69  40 CALM      29.91S HX 103
VALENTINE      SUNNY    103  57  21 SW18      29.91F HX 102
THEDFORD       SUNNY    100  64  31 S17G24    29.98S HX 102
AINSWORTH      SUNNY     98  65  34 SW14      29.94F HX 100
O`NEILL        SUNNY     94  73  50 S12G17    29.93F HX 102
ORD            SUNNY     90  73  57 S12       29.95F HX  98
BROKEN BOW     SUNNY     95  72  47 S13       29.98F HX 103
VALENTINE NWR    N/A     95  65  36 S13         N/A  HX  97
HALSEY           N/A     98  63  31 S7G14       N/A  HX  99
BUTTE            N/A     90  74  59 S8G16       N/A  HX  99
CHAMBERS         N/A     95  77  56 CALM        N/A  HX 110
EWING            N/A     90  76  64 S10         N/A  HX 102
$$

...OBSERVATIONS IN SOUTHWEST NEBRASKA AND FAR NORTHEAST COLORADO...

CITY           SKY/WX    TMP DP  RH WIND       PRES   REMARKS
HOLYOKE        FAIR      95  72  46 S8        30.06F HX 103
IMPERIAL       SUNNY     93  67  42 SW8G16    30.03F HX  96
OGALLALA       SUNNY     93  68  42 S8        30.03S HX  97
NORTH PLATTE   SUNNY     92  76  59 SE7       29.98F HX 104
MCCOOK         SUNNY    102  62  26 SW14      29.99F HX 104
LEXINGTON      SUNNY     89  74  60 S10       30.00F HX  98
STAPLETON        N/A     95  72  47 CALM        N/A  HX 103
GOTHENBURG       N/A     84  71  65 E6          N/A
CALLAWAY         N/A     89  80  73 S8          N/A  HX 105
$$

...OBSERVATIONS IN CENTRAL LINCOLN COUNTY AREA...

CITY           SKY/WX    TMP DP  RH WIND       PRES   REMARKS
N.P. AIRPORT   SUNNY     92  76  59 SE7       29.98F HX 104
N.P. DOWNTOWN    N/A     94  78  60 CALM        N/A  HX 110
N.P. SOUTHEAST   N/A     94  75  54 SE3         N/A  HX 105
N.P. HILLCREST   N/A     91  76  62 S6          N/A  HX 103
$$

...SOME OBSERVATIONS FROM AROUND THE REGION...

CITY           SKY/WX    TMP DP  RH WIND       PRES   REMARKS
DENVER         MOSUNNY   95  47  19 CALM      30.15F HX  91
LIMON          SUNNY     90  55  30 S13G24    30.18F
ASPEN          MOSUNNY   81  45  28 VRB3      30.40F
LARAMIE        CLOUDY    88  36  15 NW17      30.30F
CASPER         MOSUNNY   91  40  16 SW13      30.13F
CHEYENNE       CLOUDY    97  38  13 W12       30.20F HX  92
SCOTTSBLUFF    SUNNY     97  57  26 SE10      30.03F HX  96
GRAND ISLAND   SUNNY     89  73  59 S12G18    30.00R HX  97
OMAHA          MOSUNNY   91  74  57 S17       29.98F HX 100
SIOUX FALLS    CLOUDY    84  74  71 S16G25    29.93F HX  91
PIERRE         CLOUDY    86  67  52 E21G30    29.87F
RAPID CITY     SUNNY     96  63  33 N32G44    29.94R HX  97
BISMARCK       CLOUDY    78  61  55 SW7       29.96F
KANSAS CITY    PTSUNNY   85  76  74 S15       30.06F HX  94
HILL CITY      SUNNY    101  62  27 S14       30.01F HX 102
WICHITA        MOSUNNY   97  69  40 S16G23    30.06F HX 103
DODGE CITY     SUNNY     96  61  31 SW17      30.08F HX  96
OKLAHOMA CITY  MOSUNNY   96  66  37 SW12G17   30.12F HX  99
DALLAS         MOSUNNY   95  73  48 SE10      30.11S HX 104
AMARILLO       MOSUNNY   90  57  32 S14       30.22S
$$




USA.gov is the U.S. government's official web portal to all federal, state and local government web resources and services.